Location: Ottawa
(45.4170°N, 75.7000°W)
Time: 20:33:56
(UTC-05:00)

ISS - Visible Passes

Search period start: 28 February 2024 00:00
Search period end: 09 March 2024 00:00
Orbit: 414 x 422 km, 51.6° (Epoch: 28 February)

Date Brightness Start Highest point End Pass type
(mag) Time Alt. Az. Time Alt. Az. Time Alt. Az.
28 Feb -0.7 03:59:51 15° NE 03:59:51 15° NE 04:00:42 10° NE visible
28 Feb -2.3 05:32:47 15° NW 05:35:01 30° N 05:38:04 10° ENE visible
29 Feb -2.2 04:46:44 27° N 04:46:59 28° N 04:49:57 10° ENE visible
01 Mar -0.9 04:00:40 18° NE 04:00:40 18° NE 04:01:51 10° ENE visible
01 Mar -2.8 05:33:35 14° NW 05:36:12 43° NNE 05:39:28 10° E visible
02 Mar -2.5 04:47:31 32° N 04:48:08 35° NNE 04:51:17 10° E visible
03 Mar -1.2 04:01:28 21° NE 04:01:28 21° NE 04:03:02 10° ENE visible
03 Mar -3.7 05:34:24 15° WNW 05:37:06 84° NNE 05:40:29 10° ESE visible
04 Mar -3.3 04:48:23 47° NNW 04:49:02 58° NNE 04:52:23 10° ESE visible
05 Mar -1.5 04:02:25 25° ENE 04:02:25 25° ENE 04:04:08 10° E visible
05 Mar -3.2 05:35:22 16° WNW 05:37:40 40° SW 05:40:52 10° SE visible
06 Mar -3.9 04:49:29 65° SW 04:49:38 66° SSW 04:52:58 10° SE visible
07 Mar -1.3 04:03:43 20° ESE 04:03:43 20° ESE 04:04:52 10° ESE visible
07 Mar -2.0 05:36:40 14° WSW 05:37:53 17° SW 05:40:07 10° S visible
08 Mar -2.1 04:51:01 21° S 04:51:01 21° S 04:52:45 10° SSE visible
